Find Local Weather

World > North America > United States > Ohio

Millbury, Ohio Regional Weather

Lat: 41.56N, Lon: 83.43W
Wx Zone: OHZ006
Feedback

Millbury, OH Regional Weather

Expires:201903190600;;587139
ASUS41 KCLE 190512
RWRCLE
OHIO REGIONAL WEATHER ROUNDUP
NATIONAL WEATHER SERVICE WILMINGTON, OH
100 AM EDT TUE MAR 19 2019

NOTE: "FAIR" INDICATES FEW OR NO CLOUDS BELOW 12,000 FEET WITH NO
SIGNIFICANT WEATHER AND/OR OBSTRUCTIONS TO VISIBILITY.


OHZ001>008-015>018-024>027-034-035-043-044-190600-
   NORTHWEST OHIO
  
CITY           SKY/WX    TMP DP  RH WIND       PRES   REMARKS
DEFIANCE       FAIR      31  24  75 S3        30.39S                  
FINDLAY        CLOUDY    32  25  75 S6        30.38S WCI  26          
TOLEDO EXPRESS MOCLDY    35  21  56 SW3       30.38S                  
TOLEDO EXEC    MOCLDY    33  25  72 SW6       30.39S WCI  28          
LIMA           MOCLDY    32  25  75 SW3       30.39R                  
$$
 

SKY/WX - Weather  TMP - Temperature  DP - Dew Point  RH - Relative Humidity
WIND - Wind Direction/Speed PRES - Barometric Pressure VSB - Visibility
WCI - Wind Chill Index E13G22 Wind - East Wind 13 mph/Gusts of 22 mph